Location: Dilsberg
(49.3983°N, 8.8354°E)
Time: 01:36:23
(UTC+00:00)

Ariane Rocket - Pass Details

Date: 19 May 2025
Orbit: 755 x 765 km, 98.5° (Epoch: 23 June)

Event Time Altitude Azimuth Distance (km) Brightness Sun altitude
Exits shadow 21:17:05 17° 187° (S) 1,849 4.5 -15.4°
Maximum altitude 21:20:50 53° 260° (W) 938 3.5 -15.7°
Drops below altitude 10° 21:25:49 10° 337° (NNW) 2,311 6.8 -16.0°
Sets 21:28:12 0° 342° (NNW) 3,243 7.9 -16.2°
